Das Wetter in  D-61279 Heinzenberg / Taunus





Wetter Minimum- & Maximum-Werte im Dezember 2016

Standort: Heinzenberg / Taunus - Höhe 297 m         8 24' 1" Ost 50 21' 51" Nord
(   3-stündige Aktualisierung    letzte Aktualisierung um 19:04 am 31.12.2016  )


Messgrösse

Minimum

Maximum

Durchschnitt

Temperatur West /
Luftfeuchte West
Anklicken für Monats-Diagramm

-10,1 C

09:23
31.12.2016

58 %

14:34
04.12.2016

11,6 C

15:20
10.12.2016

93 %

10:09
14.12.2016

Temp

1,4 C

Feuchte

86 %

Temperatur Ost /
Luftfeuchte Ost
Anklicken für Monats-Diagramm

-9,9 C

09:08
31.12.2016

--

--
--

11,6 C

15:20
10.12.2016

--

--
--

1,5 C

--

Luftdruck Anklicken für Monats-Diagramm

1016,0 hPa

06:01
11.12.2016

1044,7 hPa

09:20
28.12.2016

1030,6 hPa

Taupunkt

-12,0 C

09:23
31.12.2016

7,1 C

12:44
26.12.2016

-0,8 C

Windchill
( gefühlte Temperatur )

-11,8 C

04:49
04.12.2016

11,6 C

15:20
10.12.2016

-0,7 C

Windgeschwindigkeit /
Windrichtung
Anklicken für Monats-Diagramm

---

48,0 km/h / W

13:19
26.12.2016

6,1 km/h
W

Helligkeit /
Sonnenschein
Anklicken für Monats-Diagramm
Anklicken für Monats-Diagramm

Sonnenschein:

64:26 Stunden

Max: 7:11 Std am
04.12.2016

50,1 klux

12:08
03.12.2016

10,8 klux

Solarstrahlung Anklicken für Monats-Diagramm

---

343 W/m

12:08
03.12.2016

85 W/m

Regenmenge
    Dezember 2016
Anklicken für Monats-Diagramm

Insgesamt 9,6 l/m

in 51:58 Stunden
an 21 Tagen

3,5 l/m

12:00
22.12.2016

Gesamtmenge

9,6 l/m

Regen-Tage
    Dezember 2016
Anklicken für Monats-Diagramm

>   0 mm/Tag

>   2 mm/Tag

>   5 mm/Tag

> 10 mm/Tag

> 20 mm/Tag

21 Tage     
  1 Tag     
0 Tage     
0 Tage     
0 Tage     

Eisige Tage Dezember 2016 / 2015

Tmin ≤ -10C     

  1 Tag

/

0 Tage

Eistage Dezember 2016 / 2015

Tmax <     0C     

2 Tage

/

0 Tage

Frosttage Dezember 2016 / 2015

Tmin ≤     0C     

16 Tage

/

7 Tage

Kalte Tage Dezember 2016 / 2015

Tmax <   10C     

29 Tage

/

10 Tage

Warme Tage Dezember 2016 / 2015

Tmax ≥   20C     

0 Tage

/

0 Tage

Sommertage Dezember 2016 / 2015

Tmax ≥   25C     

0 Tage

/

0 Tage

Heisse Tage Dezember 2016 / 2015

Tmax ≥   30C     

0 Tage

/

0 Tage


Monatsdiagramm Dezember 2016

Die Kurven zeigen den Durchschnittswert des jeweiligen Tages an


Wetter-Monatsübersicht Dezember 2016
Datum
  Temperatur
   Luftdruck
   Wind
  Regen
   Luftfeuchte
   Helligkeit

Sonnen-
schein


Temp.

Min.
Temp.

Max.
Temp.


Luftdruck

Min.
Luftdruck

Max.
Luftdruck

-Geschw.
Haupt-Richtg.

Max.
Wind

Menge /
Dauer


Feuchte

Min.
Feuchte

Max.
Feuchte


Helligkeit

Max.
Helligkeit

1.
Dezember
2,9 C1,2 C
00:01
4,5 C
23:57
1026,6 hPa1022,7 hPa
23:57
1031,5 hPa
00:01
13,7 km/h
W
28,0 km/h
13:36  
---
78 %61 %
00:01
87 %
22:47
2,7 klux6,5 klux
11:26
--- 
2.
Dezember
3,6 C-3,4 C
23:58
6,8 C
14:12
1022,2 hPa1020,6 hPa
08:12
1024,8 hPa
23:58
9,3 km/h
W
27,3 km/h
01:52  
0,6 l/m
3:35 Stunden
89 %87 %
00:02
91 %
08:52
5,34 klux16,70 klux
13:12
--- 
3.
Dezember
-3,3 C-7,1 C
08:43
5,7 C
14:58
1026,7 hPa1024,7 hPa
14:58
1028,4 hPa
23:59
0,7 km/h
W
7,4 km/h
21:13  
---
1:05 Stunden
86 %74 %
16:08
91 %
13:03
26,2 klux50,1 klux
12:08
7:10 Std 
4.
Dezember
-4,2 C-8,7 C
06:54
5,2 C
14:44
1028,9 hPa1026,8 hPa
14:44
1030,6 hPa
09:59
1,8 km/h
W
22,9 km/h
12:54  
---
79 %58 %
14:34
89 %
10:59
25,8 klux48,1 klux
11:38
7:11 Std 
5.
Dezember
-4,7 C-8,9 C
07:45
4,5 C
15:00
1029,1 hPa1026,9 hPa
15:00
1030,4 hPa
21:50
0,2 km/h
SO
5,9 km/h
08:40  
---
81 %69 %
15:25
87 %
12:00
23,5 klux43,6 klux
11:55
6:55 Std 
6.
Dezember
-4,0 C-5,7 C
01:36
-1,9 C
14:36
1033,0 hPa1030,3 hPa
00:11
1035,3 hPa
21:42
1,1 km/h
SO
14,0 km/h
20:17  
---
87 %84 %
00:01
89 %
09:41
6,4 klux12,8 klux
12:36
--- 
7.
Dezember
-1,8 C-3,6 C
00:02
0,3 C
14:57
1034,9 hPa1033,7 hPa
14:57
1036,3 hPa
02:42
1,2 km/h
SO
13,9 km/h
16:37  
---
89 %87 %
15:42
91 %
08:32
7,7 klux20,0 klux
11:42
--- 
8.
Dezember
-2,5 C-5,3 C
07:38
1,2 C
14:58
1033,0 hPa1030,5 hPa
15:13
1035,4 hPa
08:08
0,6 km/h
W-NW
8,7 km/h
22:49  
---
55 Minuten
88 %86 %
15:08
90 %
10:23
16,4 klux44,8 klux
12:08
3:40 Std 
9.
Dezember
3,7 C-3,8 C
00:04
5,8 C
06:59
1030,2 hPa1028,8 hPa
06:49
1032,2 hPa
00:09
1,6 km/h
W
18,5 km/h
05:44  
---
85 %76 %
06:04
92 %
02:19
4,0 klux7,5 klux
13:34
--- 
10.
Dezember
4,0 C-0,7 C
08:05
11,6 C
15:20
1025,3 hPa1020,4 hPa
23:56
1029,1 hPa
00:00
2,5 km/h
W-SW
21,5 km/h
12:10  
---
15 Minuten
84 %64 %
15:35
92 %
10:40
20,26 klux46,90 klux
12:05
6:30 Std 
11.
Dezember
6,7 C5,2 C
23:42
8,6 C
06:01
1020,2 hPa1016,0 hPa
06:01
1022,7 hPa
23:42
20,4 km/h
W
44,7 km/h
07:56  
0,2 l/m
4:56 Stunden
82 %73 %
14:51
90 %
09:41
6,8 klux26,2 klux
14:21
25 Min 
12.
Dezember
5,3 C4,3 C
23:03
6,3 C
13:12
1025,6 hPa1022,7 hPa
00:02
1028,0 hPa
23:03
4,2 km/h
W-NW
20,8 km/h
01:22  
0,6 l/m
10:04 Stunden
90 %87 %
00:02
92 %
06:57
4,2 klux9,5 klux
12:12
--- 
13.
Dezember
3,4 C0,3 C
07:28
5,7 C
13:58
1025,7 hPa1024,7 hPa
13:58
1027,4 hPa
08:43
0,9 km/h
W-SW
9,4 km/h
03:18  
2,0 l/m
5:45 Stunden
89 %85 %
14:18
92 %
11:53
5,7 klux14,8 klux
12:38
10 Min 
14.
Dezember
5,0 C3,8 C
06:34
6,5 C
13:34
1025,0 hPa1023,8 hPa
01:14
1026,8 hPa
23:05
0,2 km/h
SO
6,4 km/h
19:29  
0,9 l/m
3:25 Stunden
92 %91 %
00:04
93 %
10:09
6,1 klux19,0 klux
11:49
--- 
15.
Dezember
5,0 C3,5 C
22:30
6,0 C
13:20
1027,2 hPa1026,7 hPa
13:20
1028,0 hPa
23:05
6,0 km/h
O-SO
23,4 km/h
19:30  
---
20 Minuten
91 %87 %
19:40
93 %
00:00
3,8 klux13,2 klux
12:55
--- 
16.
Dezember
2,2 C0,2 C
23:41
3,5 C
00:00
1030,9 hPa1028,1 hPa
00:00
1035,8 hPa
23:41
9,2 km/h
O-SO
23,1 km/h
09:25  
---
84 %82 %
13:20
87 %
00:00
3,8 klux8,4 klux
12:35
--- 
17.
Dezember
1,1 C-0,6 C
03:41
2,7 C
15:11
1038,0 hPa1035,8 hPa
00:01
1039,6 hPa
17:56
0,6 km/h
SO
8,6 km/h
23:52  
---
15 Minuten
88 %85 %
00:01
89 %
06:11
4,65 klux12,50 klux
11:56
--- 
18.
Dezember
3,3 C2,3 C
00:02
4,5 C
15:37
1035,3 hPa1032,2 hPa
18:22
1038,6 hPa
00:02
1,7 km/h
W-NW
13,5 km/h
09:47  
---
1:10 Stunden
90 %88 %
00:02
92 %
08:37
3,7 klux8,0 klux
11:07
--- 
19.
Dezember
2,5 C1,7 C
17:43
4,3 C
14:38
1029,0 hPa1026,9 hPa
14:38
1032,3 hPa
00:03
5,4 km/h
O-SO
26,2 km/h
11:53  
---
5 Minuten
86 %78 %
14:33
91 %
04:58
8,44 klux43,30 klux
12:18
45 Min 
20.
Dezember
-0,5 C-3,9 C
23:59
5,6 C
14:54
1025,2 hPa1021,6 hPa
14:44
1027,3 hPa
03:14
1,6 km/h
O
15,7 km/h
15:04  
---
25 Minuten
83 %71 %
15:09
89 %
11:09
21,4 klux39,4 klux
12:34
6:15 Std 
21.
Dezember
-2,5 C-5,6 C
05:24
-0,4 C
13:30
1029,7 hPa1026,0 hPa
00:04
1031,8 hPa
17:15
1,2 km/h
SO
15,5 km/h
16:50  
---
25 Minuten
88 %86 %
00:04
90 %
10:24
5,1 klux13,4 klux
12:19
--- 
22.
Dezember
0,4 C-0,6 C
00:05
1,4 C
15:10
1031,1 hPa1029,6 hPa
05:15
1033,6 hPa
22:51
2,0 km/h
O-SO
17,0 km/h
09:00  
3,5 l/m
6:15 Stunden
89 %87 %
09:40
92 %
22:15
5,8 klux29,7 klux
09:55
45 Min 
23.
Dezember
1,8 C0,0 C
08:36
3,8 C
23:57
1034,1 hPa1029,1 hPa
23:57
1037,7 hPa
10:31
2,7 km/h
W-SW
21,6 km/h
23:52  
---
5 Minuten
92 %91 %
15:12
93 %
05:31
6,4 klux12,4 klux
09:21
45 Min 
24.
Dezember
5,3 C3,9 C
00:02
6,8 C
13:52
1027,0 hPa1025,8 hPa
08:27
1029,0 hPa
00:02
21,6 km/h
W
40,4 km/h
21:22  
1,5 l/m
4:06 Stunden
84 %73 %
15:07
92 %
06:27
10,9 klux43,5 klux
10:57
1:15 Std 
25.
Dezember
7,0 C6,0 C
00:58
7,9 C
13:53
1026,0 hPa1024,5 hPa
09:33
1026,7 hPa
00:58
28,0 km/h
W
41,7 km/h
10:08  
0,3 l/m
6:36 Stunden
86 %78 %
00:03
90 %
22:44
2,8 klux7,7 klux
11:48
--- 
26.
Dezember
6,6 C2,4 C
23:29
10,2 C
12:04
1028,5 hPa1025,1 hPa
12:04
1035,5 hPa
23:29
23,9 km/h
W
48,0 km/h
13:19  
---
1:25 Stunden
82 %74 %
19:29
90 %
04:44
7,39 klux40,50 klux
10:59
25 Min 
27.
Dezember
3,7 C2,3 C
01:14
5,4 C
14:19
1039,6 hPa1035,4 hPa
00:04
1043,6 hPa
23:30
18,2 km/h
W
31,8 km/h
01:49  
---
40 Minuten
81 %77 %
00:04
85 %
07:59
10,1 klux44,1 klux
12:04
1:20 Std 
28.
Dezember
3,6 C1,6 C
23:46
5,3 C
13:15
1043,9 hPa1043,4 hPa
13:15
1044,7 hPa
09:20
4,8 km/h
W-NW
18,3 km/h
04:00  
---
80 %73 %
13:55
85 %
00:00
8,3 klux28,1 klux
12:30
30 Min 
29.
Dezember
-0,4 C-4,1 C
08:21
7,5 C
14:51
1041,3 hPa1038,9 hPa
14:51
1044,0 hPa
00:36
2,4 km/h
SO
18,1 km/h
15:21  
---
82 %68 %
14:46
90 %
12:06
23,7 klux41,1 klux
12:41
6:50 Std 
30.
Dezember
-3,6 C-7,2 C
08:32
5,3 C
15:12
1039,1 hPa1037,1 hPa
15:12
1040,9 hPa
08:32
0,6 km/h
SO
9,5 km/h
01:07  
---
11 Minuten
84 %74 %
15:12
89 %
12:47
25,0 klux47,3 klux
12:12
6:50 Std 
31.
Dezember
-6,6 C-10,1 C
09:23
0,5 C
15:08
1034,7 hPa1029,5 hPa
23:28
1038,8 hPa
00:03
0,5 km/h
W-NW
7,2 km/h
00:13  
---
85 %79 %
15:08
88 %
11:03
23,6 klux44,4 klux
12:28
6:45 Std 



Dezember
2016

Temperatur

  

Luftdruck

  

Wind

  

Regen

  

Luftfeuchte

  

Helligkeit

Sonnen-
schein

Min

Max

Min

Max

Max

Max

Min

Max

Max

Max

1,4 C

-10,1 C

09:23 Uhr
31.12.2016

11,6 C

15:20 Uhr
10.12.2016

1030,6 hPa

1016,0 hPa

06:01 Uhr
11.12.2016

1044,7 hPa

09:20 Uhr
28.12.2016

6,1 km/h

W

48,0 km/h

13:19 Uhr
26.12.2016

3,5 l/m

6:15 Stunden
22.12.2016

86 %

58 %

14:34 Uhr
04.12.2016

93 %

10:09 Uhr
14.12.2016

10,8 klux

50,1 klux

12:08 Uhr
03.12.2016

7:11 Std

am
04.12.2016

Gesamt

Gesamt

9,6 l/m

21 Tage
51:58 h

64:26 Std


Wetter-Diagramme Dezember 2016     Heinzenberg / Taunus   
TemperaturLuftfeuchte
SolarstrahlungLuftdruck
HelligkeitSonnenschein
RegenmengeRegendauer
Wind-GeschwindigkeitWind-Richtung